Find WHDW 05-01

NORAD ID: 64956 Int'l Des: 2025-159 Owner: ZXW Country: CN Constellation: xingwang operational
LEOCIRCULARPOLARONEWEB_TYPE

当前视图

正在加载3D地球...

关于 WHDW 05-01

正在加载描述...

即将过境

Passes for default location (London). Set your location on the main map for personalized predictions.

高度历史

Loading altitude history...

两行轨道根数

1 64956U 25159A 26150.12344735 .00000012 00000-0 -60295-5 0 9996
2 64956 86.4929 288.5351 0001939 90.8137 269.3219 13.24413996 40730
Epoch: May 30, 2026 • Age: 12 hours

当前状态

高度 1179.2 km
速度 7.26 km/s
星下点 -28.40°S, 1.22°W
发射日期 Jul 27, 2025
运行时间 0.8 years
类型 other

技术详情

分类 Payload
质量 700.00 kg
干质量 700.00 kg
总质量 700.00 kg
长度 3.00 m
直径 1.00 m
跨度 10.00 m
形状 Box + 2 Pan
制造商 CAST
平台类型 Xingwang C
阶段状态 In Orbit
所有者/国家 ZXW/CN

Most Searched